Year,Month,Day,Hour,Minute,Value (Times are PST for temperature in C)
2016,08,11,08,13,16.00
2016,08,11,08,14,15.90
2016,08,11,08,15,15.90
2016,08,11,08,16,15.90
2016,08,11,08,17,15.90
2016,08,11,08,18,15.90
2016,08,11,08,19,15.90
2016,08,11,08,20,15.90
2016,08,11,08,21,15.90
2016,08,11,08,22,15.90
2016,08,11,08,23,16.00
2016,08,11,08,24,16.00
2016,08,11,08,25,16.10
2016,08,11,08,26,16.10
2016,08,11,08,27,16.10
2016,08,11,08,28,16.10
2016,08,11,08,29,16.20
2016,08,11,08,30,16.20
2016,08,11,08,31,16.20
2016,08,11,08,32,16.30
2016,08,11,08,33,16.30
2016,08,11,08,34,16.40
2016,08,11,08,35,16.40
2016,08,11,08,36,16.50
2016,08,11,08,37,16.50
2016,08,11,08,38,16.50
2016,08,11,08,39,16.50
2016,08,11,08,40,16.60
2016,08,11,08,41,16.70
2016,08,11,08,42,16.70
2016,08,11,08,43,16.80
2016,08,11,08,44,16.90
2016,08,11,08,45,16.90
2016,08,11,08,46,17.00
2016,08,11,08,47,17.10
2016,08,11,08,48,17.20
2016,08,11,08,49,17.20
2016,08,11,08,50,17.30
2016,08,11,08,51,17.40
2016,08,11,08,52,17.50
2016,08,11,08,53,17.60
2016,08,11,08,54,17.60
2016,08,11,08,55,17.70
2016,08,11,08,56,17.70
2016,08,11,08,57,17.80
2016,08,11,08,58,17.90
2016,08,11,08,59,18.00
2016,08,11,09,00,18.10
2016,08,11,09,01,18.20
2016,08,11,09,02,18.20
2016,08,11,09,03,18.30
2016,08,11,09,04,18.40
2016,08,11,09,05,18.50
2016,08,11,09,06,18.60
2016,08,11,09,07,18.60
2016,08,11,09,08,18.70
2016,08,11,09,09,18.70
2016,08,11,09,10,18.70
2016,08,11,09,11,18.70
2016,08,11,09,12,18.70
2016,08,11,09,13,18.60
2016,08,11,09,14,18.60
2016,08,11,09,15,18.60
2016,08,11,09,16,18.60
2016,08,11,09,17,18.60
2016,08,11,09,18,18.60
2016,08,11,09,19,18.60
2016,08,11,09,20,18.60
2016,08,11,09,21,18.60
2016,08,11,09,22,18.60
2016,08,11,09,23,18.60
2016,08,11,09,24,18.60
2016,08,11,09,25,18.60
2016,08,11,09,26,18.60
2016,08,11,09,27,18.60
2016,08,11,09,28,18.60
2016,08,11,09,29,18.60
2016,08,11,09,30,18.70
2016,08,11,09,31,18.70
2016,08,11,09,32,18.70
2016,08,11,09,33,18.80
2016,08,11,09,34,18.80
2016,08,11,09,35,18.80
2016,08,11,09,36,18.80
2016,08,11,09,37,18.80
2016,08,11,09,38,18.80
2016,08,11,09,39,18.90
2016,08,11,09,40,18.90
2016,08,11,09,41,18.90
2016,08,11,09,42,19.00
2016,08,11,09,43,19.00
2016,08,11,09,44,19.10
2016,08,11,09,45,19.10
2016,08,11,09,46,19.20
2016,08,11,09,47,19.20
2016,08,11,09,48,19.30
2016,08,11,09,49,19.40
2016,08,11,09,50,19.40
2016,08,11,09,51,19.40
2016,08,11,09,52,19.40
2016,08,11,09,53,19.40
2016,08,11,09,54,19.50
2016,08,11,09,55,19.50
2016,08,11,09,56,19.60
2016,08,11,09,57,19.60
2016,08,11,09,58,19.60
2016,08,11,09,59,19.60
2016,08,11,10,00,19.60
2016,08,11,10,01,19.60
2016,08,11,10,02,19.60
2016,08,11,10,03,19.50
2016,08,11,10,04,19.50
2016,08,11,10,05,19.40
2016,08,11,10,06,19.40
2016,08,11,10,07,19.30
2016,08,11,10,08,19.30
2016,08,11,10,09,19.30
2016,08,11,10,10,19.20
2016,08,11,10,11,19.20
2016,08,11,10,12,19.10
2016,08,11,10,13,19.10
2016,08,11,10,14,19.10
2016,08,11,10,15,19.10
2016,08,11,10,16,19.00
2016,08,11,10,17,19.00
2016,08,11,10,18,19.00
2016,08,11,10,19,19.00
2016,08,11,10,20,19.00
2016,08,11,10,21,19.10
2016,08,11,10,22,19.10
2016,08,11,10,23,19.10
2016,08,11,10,24,19.20
2016,08,11,10,25,19.20
2016,08,11,10,26,19.20
2016,08,11,10,27,19.30
2016,08,11,10,28,19.40
2016,08,11,10,29,19.40
2016,08,11,10,30,19.50
2016,08,11,10,31,19.50
2016,08,11,10,32,19.50
2016,08,11,10,33,19.50
2016,08,11,10,34,19.60
2016,08,11,10,35,19.60
2016,08,11,10,36,19.60
2016,08,11,10,37,19.60
2016,08,11,10,38,19.70
2016,08,11,10,39,19.70
2016,08,11,10,40,19.70
2016,08,11,10,41,19.60
2016,08,11,10,42,19.60
2016,08,11,10,43,19.50
2016,08,11,10,44,19.40
2016,08,11,10,45,19.40
2016,08,11,10,46,19.40
2016,08,11,10,47,19.40
2016,08,11,10,48,19.40
2016,08,11,10,49,19.50
2016,08,11,10,50,19.50
2016,08,11,10,51,19.50
2016,08,11,10,52,19.50
2016,08,11,10,53,19.40
2016,08,11,10,54,19.40
2016,08,11,10,55,19.50
2016,08,11,10,56,19.50
2016,08,11,10,57,19.50
2016,08,11,10,58,19.60
2016,08,11,10,59,19.60
2016,08,11,11,00,19.60
2016,08,11,11,01,19.60
2016,08,11,11,02,19.60
2016,08,11,11,03,19.70
2016,08,11,11,04,19.80
2016,08,11,11,05,19.80
2016,08,11,11,06,19.90
2016,08,11,11,07,19.90
2016,08,11,11,08,20.00
2016,08,11,11,09,20.10
2016,08,11,11,10,20.10
2016,08,11,11,11,20.20
2016,08,11,11,12,20.20
2016,08,11,11,13,20.20
2016,08,11,11,14,20.20
2016,08,11,11,15,20.20
2016,08,11,11,16,20.20
2016,08,11,11,17,20.20
2016,08,11,11,18,20.20
2016,08,11,11,19,20.20
2016,08,11,11,20,20.20
2016,08,11,11,21,20.20
2016,08,11,11,22,20.20
2016,08,11,11,23,20.10
2016,08,11,11,24,20.10
2016,08,11,11,25,20.10
2016,08,11,11,26,20.10
2016,08,11,11,27,20.10
2016,08,11,11,28,20.10
2016,08,11,11,29,20.10
2016,08,11,11,30,20.10
2016,08,11,11,31,20.10
2016,08,11,11,32,20.10
2016,08,11,11,33,20.10
2016,08,11,11,34,20.10
2016,08,11,11,35,20.10
2016,08,11,11,36,20.20
2016,08,11,11,37,20.20
2016,08,11,11,38,20.20
2016,08,11,11,39,20.20
2016,08,11,11,40,20.20
2016,08,11,11,41,20.30
2016,08,11,11,42,20.30
2016,08,11,11,43,20.40
2016,08,11,11,44,20.40
2016,08,11,11,45,20.50
2016,08,11,11,46,20.60
2016,08,11,11,47,20.60
2016,08,11,11,48,20.60
2016,08,11,11,49,20.60
2016,08,11,11,50,20.70
2016,08,11,11,51,20.60
2016,08,11,11,52,20.50
2016,08,11,11,53,20.40
2016,08,11,11,54,20.40
2016,08,11,11,55,20.40
2016,08,11,11,56,20.30
2016,08,11,11,57,20.30
2016,08,11,11,58,20.30
2016,08,11,11,59,20.30
2016,08,11,12,00,20.30
2016,08,11,12,01,20.40
2016,08,11,12,02,20.50
2016,08,11,12,03,20.50
2016,08,11,12,04,20.60
2016,08,11,12,05,20.70
2016,08,11,12,06,20.70
2016,08,11,12,07,20.80
2016,08,11,12,08,20.80
2016,08,11,12,09,20.80
2016,08,11,12,10,20.80
2016,08,11,12,11,20.90
2016,08,11,12,12,20.90
2016,08,11,12,13,20.90
2016,08,11,12,14,20.90
2016,08,11,12,15,20.90
2016,08,11,12,16,20.90
2016,08,11,12,17,20.90
2016,08,11,12,18,20.90
2016,08,11,12,19,21.00
2016,08,11,12,20,21.10
2016,08,11,12,21,21.20
2016,08,11,12,22,21.30
2016,08,11,12,23,21.30
2016,08,11,12,24,21.40
2016,08,11,12,25,21.50
2016,08,11,12,26,21.50
2016,08,11,12,27,21.60
2016,08,11,12,28,21.60
2016,08,11,12,29,21.70
2016,08,11,12,30,21.80
2016,08,11,12,31,21.80
2016,08,11,12,32,21.80
2016,08,11,12,33,21.90
2016,08,11,12,34,22.00
2016,08,11,12,35,22.00
2016,08,11,12,36,22.00
2016,08,11,12,37,22.00
2016,08,11,12,38,22.00
2016,08,11,12,39,22.00
2016,08,11,12,40,22.00
2016,08,11,12,41,22.00
2016,08,11,12,42,22.00
2016,08,11,12,43,22.10
2016,08,11,12,44,22.10
2016,08,11,12,45,22.20
2016,08,11,12,46,22.20
2016,08,11,12,47,22.20
2016,08,11,12,48,22.30
2016,08,11,12,49,22.30
2016,08,11,12,50,22.30
2016,08,11,12,51,22.20
2016,08,11,12,52,22.20
2016,08,11,12,53,22.20
2016,08,11,12,54,22.10
2016,08,11,12,55,22.00
2016,08,11,12,56,21.90
2016,08,11,12,57,21.80
2016,08,11,12,58,21.80
2016,08,11,12,59,21.80
2016,08,11,13,00,21.80
2016,08,11,13,01,21.80
2016,08,11,13,02,21.70
2016,08,11,13,03,21.50
2016,08,11,13,04,21.40
2016,08,11,13,05,21.30
2016,08,11,13,06,21.30
2016,08,11,13,07,21.30
2016,08,11,13,08,21.30
2016,08,11,13,09,21.30
2016,08,11,13,10,21.30
2016,08,11,13,11,21.30
2016,08,11,13,12,21.30
2016,08,11,13,13,21.30
2016,08,11,13,14,21.40
2016,08,11,13,15,21.50
2016,08,11,13,16,21.60
2016,08,11,13,17,21.70
2016,08,11,13,18,21.80
2016,08,11,13,19,21.80
2016,08,11,13,20,21.90
2016,08,11,13,21,21.90
2016,08,11,13,22,21.90
2016,08,11,13,23,21.90
2016,08,11,13,24,21.80
2016,08,11,13,25,21.80
2016,08,11,13,26,21.80
2016,08,11,13,27,21.80
2016,08,11,13,28,21.90
2016,08,11,13,29,22.00
2016,08,11,13,30,22.10
2016,08,11,13,31,22.10
2016,08,11,13,32,22.20
2016,08,11,13,33,22.20
2016,08,11,13,34,22.20
2016,08,11,13,35,22.30
2016,08,11,13,36,22.30
2016,08,11,13,37,22.40
2016,08,11,13,38,22.50
2016,08,11,13,39,22.60
2016,08,11,13,40,22.60
2016,08,11,13,41,22.60
2016,08,11,13,42,22.60
2016,08,11,13,43,22.60
2016,08,11,13,44,22.60
2016,08,11,13,45,22.50
2016,08,11,13,46,22.50
2016,08,11,13,47,22.50
2016,08,11,13,48,22.60
2016,08,11,13,49,22.60
2016,08,11,13,50,22.70
2016,08,11,13,51,22.70
2016,08,11,13,52,22.70
2016,08,11,13,53,22.70
2016,08,11,13,54,22.80
2016,08,11,13,55,22.90
2016,08,11,13,56,23.00
2016,08,11,13,57,23.00
2016,08,11,13,58,23.00
2016,08,11,13,59,23.00
2016,08,11,14,00,23.00
2016,08,11,14,01,23.00
2016,08,11,14,02,23.00
2016,08,11,14,03,23.00
2016,08,11,14,04,23.10
2016,08,11,14,05,23.10
2016,08,11,14,06,23.20
2016,08,11,14,07,23.30
2016,08,11,14,08,23.30
2016,08,11,14,09,23.30
2016,08,11,14,10,23.30
2016,08,11,14,11,23.30
2016,08,11,14,12,23.30
2016,08,11,14,13,23.30
2016,08,11,14,14,23.30
2016,08,11,14,15,23.20
2016,08,11,14,16,23.30
2016,08,11,14,17,23.30
2016,08,11,14,18,23.40
2016,08,11,14,19,23.40
2016,08,11,14,20,23.50
2016,08,11,14,21,23.60
2016,08,11,14,22,23.60
2016,08,11,14,23,23.70
2016,08,11,14,24,23.80
2016,08,11,14,25,23.80
2016,08,11,14,26,23.80
2016,08,11,14,27,23.80
2016,08,11,14,28,23.80
2016,08,11,14,29,23.80
2016,08,11,14,30,23.70
2016,08,11,14,31,23.70
2016,08,11,14,32,23.70
2016,08,11,14,33,23.70
2016,08,11,14,34,23.70
2016,08,11,14,35,23.70
2016,08,11,14,36,23.80
2016,08,11,14,37,23.80
2016,08,11,14,38,23.90
2016,08,11,14,39,23.90
2016,08,11,14,40,23.90
2016,08,11,14,41,23.90
2016,08,11,14,42,23.90
2016,08,11,14,43,23.80
2016,08,11,14,44,23.80
2016,08,11,14,45,23.80
2016,08,11,14,46,23.80
2016,08,11,14,47,23.80
2016,08,11,14,48,23.80
2016,08,11,14,49,23.80
2016,08,11,14,50,23.80
2016,08,11,14,51,23.80
2016,08,11,14,52,23.90
2016,08,11,14,53,24.00
2016,08,11,14,54,24.10
2016,08,11,14,55,24.10
2016,08,11,14,56,24.10
2016,08,11,14,57,24.20
2016,08,11,14,58,24.10
2016,08,11,14,59,24.10
2016,08,11,15,00,24.00
2016,08,11,15,01,23.80
2016,08,11,15,02,23.70
2016,08,11,15,03,23.50
2016,08,11,15,04,23.30
2016,08,11,15,05,23.20
2016,08,11,15,06,23.20
2016,08,11,15,07,23.20
2016,08,11,15,08,23.30
2016,08,11,15,09,23.40
2016,08,11,15,10,23.40
2016,08,11,15,11,23.50
2016,08,11,15,12,23.60
2016,08,11,15,13,23.70
2016,08,11,15,14,23.80
2016,08,11,15,15,23.80
2016,08,11,15,16,23.90
2016,08,11,15,17,23.90
2016,08,11,15,18,23.90
2016,08,11,15,19,23.90
2016,08,11,15,20,23.80
2016,08,11,15,21,23.80
2016,08,11,15,22,23.80
2016,08,11,15,23,23.80
2016,08,11,15,24,23.80
2016,08,11,15,25,23.70
2016,08,11,15,26,23.70
2016,08,11,15,27,23.60
2016,08,11,15,28,23.60
2016,08,11,15,29,23.60
2016,08,11,15,30,23.60
2016,08,11,15,31,23.60
2016,08,11,15,32,23.60
2016,08,11,15,33,23.60
2016,08,11,15,34,23.70
2016,08,11,15,35,23.70
2016,08,11,15,36,23.80
2016,08,11,15,37,23.80
2016,08,11,15,38,23.90
2016,08,11,15,39,24.00
2016,08,11,15,40,24.00
2016,08,11,15,41,24.10
2016,08,11,15,42,24.10
2016,08,11,15,43,24.10
2016,08,11,15,44,24.10
2016,08,11,15,45,24.10
2016,08,11,15,46,24.10
2016,08,11,15,47,24.10
2016,08,11,15,48,24.20
2016,08,11,15,49,24.20
2016,08,11,15,50,24.20
2016,08,11,15,51,24.20
2016,08,11,15,52,24.20
2016,08,11,15,53,24.10
2016,08,11,15,54,24.10
2016,08,11,15,55,24.00
2016,08,11,15,56,24.00
2016,08,11,15,57,23.90
2016,08,11,15,58,23.80
2016,08,11,15,59,23.80
2016,08,11,16,00,23.70
2016,08,11,16,01,23.70
2016,08,11,16,02,23.70
2016,08,11,16,03,23.70
2016,08,11,16,04,23.70
2016,08,11,16,05,23.70
2016,08,11,16,06,23.70
2016,08,11,16,07,23.70
2016,08,11,16,08,23.80
2016,08,11,16,09,23.80
2016,08,11,16,10,23.90
2016,08,11,16,11,23.90
2016,08,11,16,12,23.90
2016,08,11,16,13,23.80
2016,08,11,16,14,23.80
2016,08,11,16,15,23.70
2016,08,11,16,16,23.60
2016,08,11,16,17,23.60
2016,08,11,16,18,23.50
2016,08,11,16,19,23.50
2016,08,11,16,20,23.40
2016,08,11,16,21,23.40
2016,08,11,16,22,23.30
2016,08,11,16,23,23.30
2016,08,11,16,24,23.20
2016,08,11,16,25,23.20
2016,08,11,16,26,23.30
2016,08,11,16,27,23.30
2016,08,11,16,28,23.30
2016,08,11,16,29,23.40
2016,08,11,16,30,23.50
2016,08,11,16,31,23.50
2016,08,11,16,32,23.60
2016,08,11,16,33,23.70
2016,08,11,16,34,23.70
2016,08,11,16,35,23.70
2016,08,11,16,36,23.70
2016,08,11,16,37,23.70
2016,08,11,16,38,23.70
2016,08,11,16,39,23.70
2016,08,11,16,40,23.70
2016,08,11,16,41,23.60
2016,08,11,16,42,23.60
2016,08,11,16,43,23.60
2016,08,11,16,44,23.50
2016,08,11,16,45,23.50
2016,08,11,16,46,23.50
2016,08,11,16,47,23.50
2016,08,11,16,48,23.50
2016,08,11,16,49,23.60
2016,08,11,16,50,23.60
2016,08,11,16,51,23.60
2016,08,11,16,52,23.60
2016,08,11,16,53,23.60
2016,08,11,16,54,23.60
2016,08,11,16,55,23.60
2016,08,11,16,56,23.60
2016,08,11,16,57,23.60
2016,08,11,16,58,23.70
2016,08,11,16,59,23.70
2016,08,11,17,00,23.70
2016,08,11,17,01,23.80
2016,08,11,17,02,23.80
2016,08,11,17,03,23.80
2016,08,11,17,04,23.80
2016,08,11,17,05,23.80
2016,08,11,17,06,23.80
2016,08,11,17,07,23.80
2016,08,11,17,08,23.90
2016,08,11,17,09,23.90
2016,08,11,17,10,23.90
2016,08,11,17,11,23.90
2016,08,11,17,12,24.00
2016,08,11,17,13,24.00
2016,08,11,17,14,24.10
2016,08,11,17,15,24.10
2016,08,11,17,16,24.00
2016,08,11,17,17,24.00
2016,08,11,17,18,24.00
2016,08,11,17,19,24.00
2016,08,11,17,20,24.00
2016,08,11,17,21,24.00
2016,08,11,17,22,24.00
2016,08,11,17,23,24.10
2016,08,11,17,24,24.10
2016,08,11,17,25,24.10
2016,08,11,17,26,24.10
2016,08,11,17,27,24.10
2016,08,11,17,28,24.10
2016,08,11,17,29,24.10
2016,08,11,17,30,24.10
2016,08,11,17,31,24.10
2016,08,11,17,32,24.20
2016,08,11,17,33,24.20
2016,08,11,17,34,24.20
2016,08,11,17,35,24.30
2016,08,11,17,36,24.30
2016,08,11,17,37,24.30
2016,08,11,17,38,24.30
2016,08,11,17,39,24.40
2016,08,11,17,40,24.40
2016,08,11,17,41,24.40
2016,08,11,17,42,24.40
2016,08,11,17,43,24.40
2016,08,11,17,44,24.40
2016,08,11,17,45,24.40
2016,08,11,17,46,24.30
2016,08,11,17,47,24.30
2016,08,11,17,48,24.20
2016,08,11,17,49,24.20
2016,08,11,17,50,24.10
2016,08,11,17,51,24.00
2016,08,11,17,52,23.90
2016,08,11,17,53,23.80
2016,08,11,17,54,23.80
2016,08,11,17,55,23.70
2016,08,11,17,56,23.70
2016,08,11,17,57,23.60
2016,08,11,17,58,23.60
2016,08,11,17,59,23.60
2016,08,11,18,00,23.50
2016,08,11,18,01,23.50
2016,08,11,18,02,23.40
2016,08,11,18,03,23.40
2016,08,11,18,04,23.30
2016,08,11,18,05,23.30
2016,08,11,18,06,23.30
2016,08,11,18,07,23.30
2016,08,11,18,08,23.30
2016,08,11,18,09,23.30
2016,08,11,18,10,23.30
2016,08,11,18,11,23.30
2016,08,11,18,12,23.30
2016,08,11,18,13,23.30
2016,08,11,18,14,23.30
2016,08,11,18,15,23.30
2016,08,11,18,16,23.40
2016,08,11,18,17,23.40
2016,08,11,18,18,23.30
2016,08,11,18,19,23.30
2016,08,11,18,20,23.30
2016,08,11,18,21,23.30
2016,08,11,18,22,23.30
2016,08,11,18,23,23.20
2016,08,11,18,24,23.30
2016,08,11,18,25,23.20
2016,08,11,18,26,23.20
2016,08,11,18,27,23.20
2016,08,11,18,28,23.30
2016,08,11,18,29,23.30
2016,08,11,18,30,23.30
2016,08,11,18,31,23.30
2016,08,11,18,32,23.30
2016,08,11,18,33,23.30
2016,08,11,18,34,23.30
2016,08,11,18,35,23.30
2016,08,11,18,36,23.30
2016,08,11,18,37,23.30
2016,08,11,18,38,23.30
2016,08,11,18,39,23.30
2016,08,11,18,40,23.30
2016,08,11,18,41,23.30
2016,08,11,18,42,23.30
2016,08,11,18,43,23.30
2016,08,11,18,44,23.30
2016,08,11,18,45,23.30
2016,08,11,18,46,23.30
2016,08,11,18,47,23.30
2016,08,11,18,48,23.30
2016,08,11,18,49,23.30
2016,08,11,18,50,23.30
